sat.trackr.live / text

‹ back to catalog

KUIPER-00420

NORAD 68932 · 2026-098P

PAYLOAD ACTIVE UNKNOWN

§ Identity

Operator
Country
US
Launch date
2026-04-30
Launch site
FRGUI
Launch vehicle
Mass (kg)
RCS (m²)

External: N2YO · Heavens-Above · Gunter

§ Orbital elements

Epoch: 2026-05-24T10:57:29.000160Z

Period
93.79 min
Inclination
51.8754°
Eccentricity
0.0003763
Mean motion
15.35318592 rev/d
Perigee alt
457.4 km
Apogee alt
462.5 km
Semi-major
6,838.1 km
B*
6.2311e-4
RAAN
181.9674°
Arg perigee
69.3444°
Mean anomaly
290.7945°
Rev number
370

§ Raw data

KUIPER-004201 68932U 26098P   26144.45658565  .00021382  00000+0  62311-3 0  99952 68932  51.8754 181.9674 0003763  69.3444 290.7945 15.35318592  3703

JSON: /api/v1/satellites/68932 · /tle

For live sub-satellite position, see the globe view (requires WebGL).

§ Visibility from observer

Set your observer location to see the next 7 days of passes ≥ 10°. The values pass through the URL so the page stays shareable.

No JS? Fill the form by hand. The geolocation button needs JavaScript.